Regional Weather Roundup
Issued by NWS Goodland, KS

Home | Current Version | Previous Version | Graphics & Text | Print | Product List | Glossary On
Versions: 1 2 3 4 5 6 7 8 9 10 11 12 13 14 15 16 17 18 19 20 21 22 23 24 25 26 27 28 29 30 31 32 33 34 35 36 37 38 39 40 41 42 43 44 45 46 47 48 49 50
000
ASUS43 KGLD 010108
RWRGLD

GOODLAND FORECAST AREA HOURLY WEATHER ROUNDUP
NATIONAL WEATHER SERVICE GOODLAND KS
700 PM MDT TUE JUN 30 2015

...OFFICIAL OBSERVATIONS...

CITY           SKY/WX    TMP DP  RH WIND       PRES   REMARKS
GOODLAND KS    SUNNY     91  48  22 S8        29.92S
HILL CITY KS   MOSUNNY  100  49  17 SW10      29.82S
IMPERIAL NEB   SUNNY     90  57  32 SE6       29.86S
MCCOOK NEB     MOSUNNY   96  57  27 E5        29.82F
AKRON CO       PTSUNNY   86  56  35 CALM      30.00S
BURLINGTON CO  SUNNY     92  44  19 S15       29.97S
LIMON CO       MOSUNNY   81  57  43 S6        30.07S
$$

...UNOFFICIAL OBSERVATIONS...

CITY           SKY/WX    TMP DP  RH WIND       PRES   REMARKS
COLBY KS       SUNNY     97  54  23 SW7       29.90S
GOVE KS          N/A     98  32  10 MISG        N/A
NORTON KS      SUNNY     93  43  17 S3        29.82R
SHARON SPRINGS   N/A     95  47  19 S5          N/A
KIT CARSON CO    N/A     94  52  23 MISG        N/A
$$



USA.gov is the U.S. government's official web portal to all federal, state and local government web resources and services.